When you browse on this site, cookies collect data to enhance your experience and personalize the content and advertising you see.
Visit our Privacy Policy to learn more. By continuing to use the site, you agree to this use of cookies and data.
  • In Spain
  • List of Countries
  • For 7 days
  • Water Temperature
  • Satellite Maps
  • Weather Map
  • Weather Widgets
  • user-avatar
    Login

    Hourly Weather Kruzhok

    Today, 23 May, Thursday

    Time Temperature Precipitation Wind Pressure Humidity
    00:00 +14°C° 0 mm 1 mps 744 mmHg 93%
    01:00 +14°C° 0 mm 1 mps 744 mmHg 93%
    02:00 +13°C° 0 mm 0 mps 744 mmHg 92%
    03:00 +13°C° 0 mm 0 mps 744 mmHg 92%
    04:00 +14°C° 0 mm 0 mps 744 mmHg 92%
    05:00 +14°C° 0 mm 0 mps 744 mmHg 92%
    06:00 +18°C° 0 mm 1 mps 744 mmHg 87%
    07:00 +19°C° 0 mm 1 mps 744 mmHg 82%
    08:00 +19°C° 0 mm 2 mps 744 mmHg 78%
    09:00 +22°C° 0 mm 1 mps 744 mmHg 72%
    10:00 +23°C° 0 mm 1 mps 744 mmHg 67%
    11:00 +24°C° 0 mm 1 mps 744 mmHg 61%
    12:00 +25°C° 0.1 mm 1 mps 744 mmHg 60%
    13:00 +25°C° 0.1 mm 2 mps 743 mmHg 59%
    14:00 +25°C° 0.1 mm 2 mps 743 mmHg 58%
    15:00 +25°C° 1.3 mm 2 mps 743 mmHg 63%
    16:00 +24°C° 1.3 mm 1 mps 743 mmHg 68%
    17:00 +24°C° 1.3 mm 1 mps 743 mmHg 72%
    18:00 +23°C° 0.2 mm 1 mps 743 mmHg 75%
    19:00 +21°C° 0.2 mm 1 mps 743 mmHg 79%
    20:00 +20°C° 0.2 mm 1 mps 743 mmHg 82%
    21:00 +19°C° 0.2 mm 1 mps 743 mmHg 84%
    22:00 +19°C° 0.2 mm 1 mps 743 mmHg 86%
    23:00 +18°C° 0.2 mm 1 mps 744 mmHg 88%

    Tomorrow, 24 May, Friday

    Time Temperature Precipitation Wind Pressure Humidity
    00:00 +18°C° 0 mm 1 mps 744 mmHg 89%
    01:00 +16°C° 0 mm 1 mps 744 mmHg 89%
    02:00 +16°C° 0 mm 1 mps 744 mmHg 90%
    03:00 +16°C° 0 mm 1 mps 744 mmHg 90%
    04:00 +16°C° 0 mm 1 mps 744 mmHg 89%
    05:00 +16°C° 0 mm 1 mps 744 mmHg 89%
    06:00 +19°C° 0 mm 1 mps 744 mmHg 84%
    07:00 +20°C° 0 mm 1 mps 744 mmHg 79%
    08:00 +22°C° 0 mm 1 mps 745 mmHg 74%
    09:00 +23°C° 0.3 mm 1 mps 745 mmHg 68%
    10:00 +24°C° 0.3 mm 1 mps 745 mmHg 61%
    11:00 +26°C° 0.3 mm 1 mps 744 mmHg 55%
    12:00 +26°C° 0.1 mm 1 mps 744 mmHg 54%
    13:00 +26°C° 0.1 mm 1 mps 744 mmHg 53%
    14:00 +25°C° 0.1 mm 0 mps 744 mmHg 52%
    15:00 +25°C° 0.1 mm 0 mps 744 mmHg 54%
    16:00 +26°C° 0.1 mm 1 mps 744 mmHg 57%
    17:00 +26°C° 0.1 mm 1 mps 744 mmHg 59%
    18:00 +24°C° 0.4 mm 1 mps 744 mmHg 66%
    19:00 +21°C° 0.4 mm 2 mps 744 mmHg 74%
    20:00 +19°C° 0.4 mm 2 mps 744 mmHg 81%
    21:00 +18°C° 0.7 mm 2 mps 744 mmHg 83%
    22:00 +18°C° 0.7 mm 2 mps 744 mmHg 86%
    23:00 +17°C° 0.7 mm 2 mps 744 mmHg 89%

    Day after tomorrow, 25 May, Saturday

    Time Temperature Precipitation Wind Pressure Humidity
    00:00 +17°C° 0.2 mm 2 mps 744 mmHg 90%
    01:00 +18°C° 0.2 mm 1 mps 744 mmHg 90%
    02:00 +18°C° 0.2 mm 1 mps 744 mmHg 91%
    03:00 +18°C° 0 mm 1 mps 744 mmHg 91%
    04:00 +18°C° 0 mm 1 mps 743 mmHg 90%
    05:00 +18°C° 0 mm 1 mps 743 mmHg 90%
    06:00 +19°C° 0.1 mm 1 mps 743 mmHg 86%
    07:00 +21°C° 0.1 mm 1 mps 743 mmHg 82%
    08:00 +21°C° 0.1 mm 2 mps 743 mmHg 78%
    09:00 +23°C° 1.2 mm 2 mps 743 mmHg 73%
    10:00 +24°C° 1.2 mm 2 mps 743 mmHg 68%
    11:00 +25°C° 1.2 mm 2 mps 743 mmHg 63%
    12:00 +25°C° 0.5 mm 2 mps 743 mmHg 62%
    13:00 +25°C° 0.5 mm 2 mps 742 mmHg 62%
    14:00 +25°C° 0.5 mm 2 mps 742 mmHg 61%
    15:00 +25°C° 0.8 mm 2 mps 742 mmHg 66%
    16:00 +24°C° 0.8 mm 2 mps 742 mmHg 71%
    17:00 +24°C° 0.8 mm 3 mps 741 mmHg 75%
    18:00 +21°C° 0.1 mm 2 mps 741 mmHg 80%
    19:00 +20°C° 0.1 mm 2 mps 741 mmHg 84%
    20:00 +18°C° 0.1 mm 2 mps 741 mmHg 89%
    21:00 +18°C° 0 mm 2 mps 741 mmHg 89%
    22:00 +18°C° 0 mm 1 mps 741 mmHg 90%
    23:00 +18°C° 0 mm 1 mps 741 mmHg 91%

    26 May, Sunday

    Time Temperature Precipitation Wind Pressure Humidity
    00:00 +16°C° 0.2 mm 1 mps 741 mmHg 91%
    01:00 +16°C° 0.2 mm 1 mps 741 mmHg 92%
    02:00 +16°C° 0.2 mm 1 mps 741 mmHg 92%
    03:00 +16°C° 0.2 mm 2 mps 741 mmHg 92%
    04:00 +16°C° 0.2 mm 2 mps 741 mmHg 92%
    05:00 +16°C° 0.2 mm 2 mps 741 mmHg 92%
    06:00 +18°C° 0 mm 3 mps 741 mmHg 89%
    07:00 +19°C° 0 mm 4 mps 742 mmHg 86%
    08:00 +20°C° 0 mm 4 mps 742 mmHg 83%
    09:00 +21°C° 0.4 mm 5 mps 742 mmHg 78%
    10:00 +22°C° 0.4 mm 5 mps 742 mmHg 74%
    11:00 +23°C° 0.4 mm 5 mps 742 mmHg 69%
    12:00 +23°C° 0.1 mm 5 mps 742 mmHg 68%
    13:00 +23°C° 0.1 mm 5 mps 743 mmHg 66%
    14:00 +23°C° 0.1 mm 5 mps 743 mmHg 65%
    15:00 +22°C° 0.2 mm 5 mps 743 mmHg 68%
    16:00 +22°C° 0.2 mm 5 mps 743 mmHg 70%
    17:00 +21°C° 0.2 mm 4 mps 744 mmHg 72%
    18:00 +20°C° 0 mm 4 mps 744 mmHg 75%
    19:00 +18°C° 0 mm 3 mps 744 mmHg 78%
    20:00 +16°C° 0 mm 3 mps 744 mmHg 81%
    21:00 +14°C° 0 mm 3 mps 745 mmHg 82%
    22:00 +15°C° 0 mm 2 mps 745 mmHg 83%
    23:00 +14°C° 0 mm 2 mps 745 mmHg 83%

    27 May, Monday

    Time Temperature Precipitation Wind Pressure Humidity
    00:00 +13°C° 0 mm 3 mps 745 mmHg 85%
    01:00 +13°C° 0 mm 3 mps 746 mmHg 86%
    02:00 +12°C° 0 mm 3 mps 746 mmHg 87%
    03:00 +13°C° 0 mm 3 mps 746 mmHg 88%
    04:00 +13°C° 0 mm 3 mps 746 mmHg 88%
    05:00 +13°C° 0 mm 3 mps 747 mmHg 88%
    06:00 +16°C° 0 mm 3 mps 747 mmHg 84%
    07:00 +17°C° 0 mm 4 mps 747 mmHg 79%
    08:00 +19°C° 0 mm 4 mps 748 mmHg 75%
    09:00 +20°C° 0.1 mm 4 mps 748 mmHg 72%
    10:00 +21°C° 0.1 mm 5 mps 748 mmHg 68%
    11:00 +22°C° 0.1 mm 5 mps 748 mmHg 65%
    12:00 +23°C° 0.1 mm 5 mps 748 mmHg 64%
    13:00 +23°C° 0.1 mm 4 mps 748 mmHg 63%
    14:00 +23°C° 0.1 mm 4 mps 748 mmHg 62%
    15:00 +23°C° 0.2 mm 4 mps 748 mmHg 66%
    16:00 +24°C° 0.2 mm 3 mps 749 mmHg 70%
    17:00 +22°C° 0.2 mm 3 mps 749 mmHg 74%
    18:00 +21°C° 0.3 mm 3 mps 749 mmHg 79%
    19:00 +20°C° 0.3 mm 2 mps 749 mmHg 85%
    20:00 +19°C° 0.3 mm 1 mps 749 mmHg 90%
    21:00 +18°C° 0 mm 2 mps 749 mmHg 91%
    22:00 +18°C° 0 mm 2 mps 749 mmHg 92%
    23:00 +17°C° 0 mm 2 mps 749 mmHg 93%

    28 May, Tuesday

    Time Temperature Precipitation Wind Pressure Humidity
    00:00 +17°C° 0 mm 2 mps 749 mmHg 93%
    01:00 +17°C° 0 mm 2 mps 749 mmHg 94%
    02:00 +17°C° 0 mm 2 mps 749 mmHg 94%
    03:00 +17°C° 0 mm 2 mps 750 mmHg 94%
    04:00 +17°C° 0 mm 3 mps 750 mmHg 94%
    05:00 +17°C° 0 mm 3 mps 750 mmHg 93%
    06:00 +19°C° 0 mm 3 mps 750 mmHg 89%
    07:00 +21°C° 0 mm 3 mps 750 mmHg 84%
    08:00 +22°C° 0 mm 4 mps 750 mmHg 79%
    09:00 +23°C° 0 mm 4 mps 750 mmHg 74%
    10:00 +25°C° 0 mm 5 mps 750 mmHg 69%
    11:00 +27°C° 0 mm 5 mps 750 mmHg 64%
    12:00 +27°C° 0 mm 6 mps 750 mmHg 65%
    13:00 +27°C° 0 mm 6 mps 750 mmHg 66%
    14:00 +27°C° 0 mm 6 mps 749 mmHg 66%
    15:00 +26°C° 0 mm 5 mps 749 mmHg 68%
    16:00 +26°C° 0 mm 5 mps 749 mmHg 70%
    17:00 +26°C° 0 mm 4 mps 749 mmHg 72%
    18:00 +25°C° 0 mm 4 mps 749 mmHg 75%
    19:00 +22°C° 0 mm 4 mps 748 mmHg 77%
    20:00 +21°C° 0 mm 4 mps 748 mmHg 80%
    21:00 +21°C° 0 mm 4 mps 748 mmHg 79%
    22:00 +20°C° 0 mm 5 mps 748 mmHg 79%
    23:00 +20°C° 0 mm 5 mps 748 mmHg 78%
    Show more